This demonstration page uses our WeatherBlox Daily Observations layout. Learn more.

Left ArrowRight Arrow

Hourly Observations for November 26, 2015

Temp ( °F °C ) Dew Point ( °F °C ) Humidity (%) Winds ( mph kmh ) Pressure ( in mb ) Visibility ( mi km ) Precip ( " mm )
12:51 am 00:51 Clear 61 16.1 47 8.3 60 60 S 14 22 29.77 1008 10 16.0934 N/A
1:51 am 01:51 Clear 59 15 49 9.4 69 69 S 12 19 29.76 1008 10 16.0934 N/A
2:51 am 02:51 Mostly Clear 57 13.9 50 10 78 78 ESE 9 15 29.78 1008 10 16.0934 N/A
3:51 am 03:51 Mostly Cloudy 58 14.4 50 10 75 75 E 3 6 29.78 1009 10 16.0934 N/A
4:51 am 04:51 Cloudy 57 13.9 51 10.6 81 81 E 6 9 29.8 1009 10 16.0934 N/A
5:51 am 05:51 Mostly Cloudy 56 13.3 51 10.6 84 84 ENE 8 13 29.82 1010 10 16.0934 N/A
6:51 am 06:51 Partly Cloudy 55 12.8 50 10 83 83 E 10 17 29.84 1010 10 16.0934 N/A
7:51 am 07:51 Partly Cloudy 53 11.7 48 8.9 83 83 E 7 11 29.86 1011 10 16.0934 N/A
8:51 am 08:51 Cloudy 56 13.3 51 10.6 84 84 E 9 15 29.86 1011 10 16.0934 N/A
9:51 am 09:51 Mostly Cloudy 59 15 51 10.6 75 75 SE 6 9 29.87 1011 10 16.0934 N/A
10:51 am 10:51 Cloudy 61 16.1 51 10.6 70 70 E 7 11 29.87 1011 10 16.0934 N/A
11:51 am 11:51 Cloudy 65 18.3 51 10.6 61 61 SSE 9 15 29.82 1010 10 16.0934 N/A
12:04 pm 12:04 Mostly Cloudy 66 18.9 50 10 56 56 S 13 20 29.8 1009 10 16.0934 N/A
12:51 pm 12:51 Partly Cloudy 67 19.4 49 9.4 53 53 S 22 35 29.79 1009 10 16.0934 N/A
1:51 pm 13:51 Sunny 67 19.4 49 9.4 53 53 S 17 28 29.77 1008 10 16.0934 N/A
2:51 pm 14:51 Sunny 66 18.9 47 8.3 50 50 S 17 28 29.75 1008 10 16.0934 N/A
3:51 pm 15:51 Sunny 67 19.4 45 7.2 45 45 S 15 24 29.74 1007 10 16.0934 N/A
4:51 pm 16:51 Sunny 65 18.3 48 8.9 54 54 S 17 28 29.75 1008 10 16.0934 N/A
5:51 pm 17:51 Clear 63 17.2 47 8.3 56 56 S 16 26 29.77 1008 10 16.0934 N/A
6:51 pm 18:51 Clear 62 16.7 46 7.8 56 56 S 9 15 29.8 1009 10 16.0934 N/A
7:51 pm 19:51 Partly Cloudy 57 13.9 43 6.1 60 60 SW 9 15 29.85 1011 10 16.0934 N/A
8:51 pm 20:51 Partly Cloudy 54 12.2 43 6.1 67 67 N N/A 29.87 1011 10 16.0934 N/A
9:51 pm 21:51 Clear 52 11.1 41 5 66 66 W 7 11 29.87 1012 10 16.0934 N/A
10:51 pm 22:51 Clear 46 7.8 41 5 83 83 N N/A 29.89 1012 10 16.0934 N/A
11:51 pm 23:51 Clear 45 7.2 40 4.4 83 83 VRB 6 9 29.9 1012 10 16.0934 N/A

Powered by AerisWeather